Regional Weather Roundup
Issued by NWS

Home | Current Version | Previous Version | Graphics & Text | Print | Product List | Glossary On
Versions: 1 2 3 4 5 6 7 8 9 10 11 12 13 14 15 16 17 18 19 20 21 22 23 24 25 26 27 28 29 30 31 32 33 34 35 36 37 38 39 40 41 42 43 44 45 46 47 48 49 50
000
ASUS45 KABQ 270210
RWRNM
NEW MEXICO REGIONAL WEATHER ROUNDUP
NATIONAL WEATHER SERVICE ALBUQUERQUE NM
800 PM MDT MON JUN 26 2017

NOTE: "FAIR" MEANS FEW OR NO CLOUDS BELOW 12,000 FEET AGL WITH NO
       SIGNIFICANT WEATHER OR OBSTRUCTIONS TO VISION.

      THIS PRODUCT IS RELEASED AS TWO VERSIONS.  ONE VERSION NEAR
      THE TOP OF THE HOUR CONTAINING PRELIMINARY DATA FROM ALBUQUERQUE
      AND OTHER STATIONS.  A FINAL VERSION WITH ADDITIONAL DATA IS
      ISSUED ABOUT 10 MINUTES AFTER THE HOUR.

NMZ501-503-504-510>518-270300-
NORTHWEST PLATEAU/NORTHCENTRAL MOUNTAINS

CITY           SKY/WX    TMP DP  RH WIND       PRES   REMARKS
FARMINGTON     FAIR      85  33  15 NE9       30.06S
LOS ALAMOS     FAIR      67  42  40 SW9       30.31R
SANTA FE       FAIR      70  46  42 CALM      30.23F
TAOS           FAIR      70  34  26 SE7       30.28S
ANGEL FIRE     FAIR      52  46  80 W3        30.40S

$$
NMZ402-403-502-505>509-270300-
WESTCENTRAL MOUNTAINS/SOUTHWEST MOUNTAINS

CITY           SKY/WX    TMP DP  RH WIND       PRES   REMARKS
GALLUP         FAIR      84  31  14 S5        30.17S
GRANTS         FAIR      80  36  20 SE5       30.21S
SILVER CITY    FAIR      76  50  40 N9        30.18R

$$
NMZ407-409-411-412-270300-
SOUTHERN DESERTS

CITY           SKY/WX    TMP DP  RH WIND       PRES   REMARKS
DEMING         FAIR      86  46  24 N21G37    30.08R
LAS CRUCES     FAIR      82  47  29 N23       30.13R
HOLLOMAN AFB   CLEAR     88  53  29 NW15      30.09R
ALAMOGORDO     FAIR      86  48  26 W6        30.09R
T OR C         FAIR      76  50  40 W6        30.13F

$$
NMZ519>523-270300-
CENTRAL VALLEYS/CENTRAL HIGHLANDS

CITY           SKY/WX    TMP DP  RH WIND       PRES   REMARKS
ALBUQUERQUE    MOCLDY    71  51  49 E29G37    30.17F
DOUBLE EAGLE   PTCLDY    73  46  38 SE13      30.20F
MORIARTY ARPT  CLOUDY    65  55  71 SW16      30.31R
CLINES CORNERS FAIR      67  45  45 W10       30.32R
BELEN          FAIR      80  39  23 SE16G24   30.18R
SOCORRO        FAIR      81  39  22 SW12G32   30.11R

$$
NMZ524>526-539-540-270300-
SOUTHCENTRAL MOUNTAINS

CITY           SKY/WX    TMP DP  RH WIND       PRES   REMARKS
RUIDOSO        CLOUDY    66  57  72 E10       30.35R

$$
NMZ527>531-270300-
NORTHEAST HIGHLANDS/NORTHEAST PLAINS

CITY           SKY/WX    TMP DP  RH WIND       PRES   REMARKS
LAS VEGAS      FAIR      66  49  54 NE7       30.29R
RATON          FAIR      72  37  28 NW20G25   30.19F
CLAYTON        MOCLDY    74  56  53 E15       30.18R

$$
NMZ532>537-270300-
EASTCENTRAL PLAINS

CITY           SKY/WX    TMP DP  RH WIND       PRES   REMARKS
SANTA ROSA     FAIR      78  53  40 S15       30.15R
TUCUMCARI      FAIR      82  55  39 S12       30.07R
CANNON AFB     FAIR      74  63  67 SE13      30.17R
CLOVIS AIRPORT FAIR      75  57  53 SE12      30.16R

$$
NMZ028-029-538-270300-
SOUTHEAST PLAINS

CITY           SKY/WX    TMP DP  RH WIND       PRES   REMARKS
ROSWELL        FAIR      84  56  38 S6        30.08R
ARTESIA        FAIR      84  57  39 SE5       30.08R
CARLSBAD       FAIR      82  63  52 SE5       30.04S
HOBBS          FAIR      75  64  69 E13       30.12R


$$



USA.gov is the U.S. government's official web portal to all federal, state and local government web resources and services.